"Pseudo-MPEC" for CEJ6Y92

Created 2026 Apr 16 23:35:06 UT using Find_Orb

Click here for an explanation of pseudo-MPECs

 
 Astrometry: 
     CEJ6Y92*1C2026 04 15.32465013 48 37.008+26 09 27.50   ~4FDK 19.86GVNEOCPG96
     CEJ6Y92 1C2026 04 15.32981313 48 39.128+26 08 01.86   ~4FDK 20.20GVNEOCPG96
     CEJ6Y92 1C2026 04 15.33496413 48 41.270+26 06 35.46   ~4FDK 20.33GVNEOCPG96
     CEJ6Y92 1C2026 04 15.34011413 48 43.355+26 05 10.03   ~4FDK 20.30GVNEOCPG96
     CEJ6Y92 1C2026 04 15.44358313 49 25.842+25 36 42.16   ~4FDZ 19.87GVNEOCPI52
     CEJ6Y92 1C2026 04 15.44417113 49 26.087+25 36 32.83   ~4FDZ 19.94GVNEOCPI52
     CEJ6Y92 1C2026 04 15.44475913 49 26.339+25 36 23.51   ~4FDZ 19.72GVNEOCPI52
     CEJ6Y92 1C2026 04 15.44534613 49 26.566+25 36 13.82   ~4FDZ       VNEOCPI52
     CEJ6Y92 KB2026 04 15.81733 13 52 21.10 +23 58 31.3    ~4FM5 19.8 GXNEOCPM45
     CEJ6Y92 KB2026 04 15.82554 13 52 24.20 +23 56 28.3    ~4FM5 20.1 GXNEOCPM45
     CEJ6Y92 KB2026 04 15.83367 13 52 27.28 +23 54 27.0    ~4FM5 20.0 GXNEOCPM45
     CEJ6Y92 KC2026 04 15.88541813 52 47.83 +23 41 32.1    ~4FLo 19.7 GVNEOCPL01
     CEJ6Y92 KC2026 04 15.88691613 52 48.38 +23 41 10.0    ~4FLo 19.6 GVNEOCPL01
     CEJ6Y92 KC2026 04 15.88841213 52 48.91 +23 40 47.3    ~4FLo 19.9 GVNEOCPL01
     CEJ6Y92 KC2026 04 15.88990613 52 49.48 +23 40 25.2    ~4FLo 20.0 GVNEOCPL01
     CEJ6Y92 KC2026 04 15.89140113 52 50.03 +23 40 03.2    ~4FLo 19.9 GVNEOCPL01
     CEJ6Y92 KC2026 04 15.96442213 53 18.14 +23 22 04.3    ~4FNo 19.5 GXNEOCP958
     CEJ6Y92 KC2026 04 15.96887113 53 19.78 +23 20 58.6    ~4FNo 19.6 GXNEOCP958
     CEJ6Y92 KC2026 04 15.97334613 53 21.35 +23 19 54.0    ~4FNo 19.3 GXNEOCP958
     CEJ6Y92 KB2026 04 15.97924713 53 23.30 +23 18 24.3    ~4G05 19.6 GVNEOCPI93
     CEJ6Y92 KB2026 04 15.98159513 53 24.11 +23 17 49.7    ~4G05 19.6 GVNEOCPI93
     CEJ6Y92 KB2026 04 15.98384013 53 24.93 +23 17 16.6    ~4G05 20.4 GVNEOCPI93
     CEJ6Y92 1C2026 04 16.11516013 54 10.019+22 44 58.40   ~4G9Z 20.0 GXNEOCP033
     CEJ6Y92 1C2026 04 16.11570013 54 10.199+22 44 50.40   ~4G9Z 20.0 GXNEOCP033
     CEJ6Y92 1C2026 04 16.11626013 54 10.408+22 44 42.20   ~4G9Z 19.8 GXNEOCP033
     CEJ6Y92 1C2026 04 16.11680013 54 10.588+22 44 33.90   ~4G9Z 19.9 GXNEOCP033
     CEJ6Y92 |C2026 04 16.13866013 54 28.040+22 42 32.40   ~4GMK 20.2 GVNEOCP807
     CEJ6Y92 |C2026 04 16.14172013 54 29.050+22 41 49.00   ~4GMK 19.7 GVNEOCP807
     CEJ6Y92 |C2026 04 16.14477013 54 30.010+22 41 05.10   ~4GMK 20.1 GVNEOCP807
     CEJ6Y92  C2026 04 16.16356913 54 40.548+22 33 57.98   ~4G4Z 19.8 GWNEOCPH01
     CEJ6Y92  C2026 04 16.16820913 54 42.162+22 32 52.75   ~4G4Z 20.5 GWNEOCPH01
     CEJ6Y92  C2026 04 16.17976413 54 46.129+22 30 10.65   ~4G4Z 20.2 GWNEOCPH01
     CEJ6Y92  C2026 04 16.18488213 54 47.874+22 28 58.99   ~4G4Z 20.2 GWNEOCPH01
     CEJ6Y92 1C2026 04 16.19447613 54 51.620+22 26 46.28   ~4G5K 19.66GVNEOCPI52
     CEJ6Y92 1C2026 04 16.20122513 54 53.939+22 25 11.82   ~4G5K 21.63GVNEOCPI52
     CEJ6Y92 1C2026 04 16.20149113 54 54.061+22 25 08.15   ~4G5K 20.12GVNEOCPI52
     CEJ6Y92 1C2026 04 16.20175913 54 54.133+22 25 04.76   ~4G5K 19.90GVNEOCPI52
     CEJ6Y92  C2026 04 16.40386513 55 59.667+21 38 05.65   ~4GEK 19.88GVNEOCPU74
     CEJ6Y92  C2026 04 16.40714013 56 00.762+21 37 20.54   ~4GEK 19.88GVNEOCPU74
     CEJ6Y92 KC2026 04 16.87548613 58 47.462+19 54 15.37   ~4GLZx19.9 GWNEOCP151
     CEJ6Y92 KC2026 04 16.87745413 58 48.247+19 53 50.35   ~4GLZ 19.9 GWNEOCP151
     CEJ6Y92 KC2026 04 16.88136613 58 49.339+19 53 02.04   ~4GLZ 20.2 GWNEOCP151
     CEJ6Y92 KC2026 04 16.88724513 58 51.048+19 51 49.18   ~4GLZ 19.9 GWNEOCP151
     CEJ6Y92 KC2026 04 16.90632913 58 56.50 +19 47 57.8    ~4GMo 20.3 GVNEOCP104
     CEJ6Y92 KC2026 04 16.92481513 59 01.67 +19 44 08.0    ~4GMo 20.3 GVNEOCP104

Station data:
(033) Karl Schwarzschild Observatory, Tautenburg  (N50.980139 E11.711240)
   Germany.  Observer B. Stecklum. 1.34-m f/3 Schmidt + CCD.
(104) San Marcello Pistoiese  (N44.064178 E10.803750)  Italy.  Observers P.
   Bacci, M. Maestripieri. Measurers P. Bacci, L. Tesi, G. Fagioli. 0.60-m
   reflector + CCD.
(151) Eschenberg Observatory, Winterthur  (N47.476028 E8.744000)  Switzerland.
     Observer D. Luongo. 0.6-m f/3.8 Astrograph + CCD.
(807) Cerro Tololo Observatory, La Serena  (S30.169133 W70.805900)  Chile.
   Observer R. Holmes. 0.61-m f/6.5 astrograph + CCD.
(958) Observatoire de Dax  (N43.693381 W1.030530)  France.  Observer P.
   Dupouy. 0.32-m Schmidt-Cassegrain.
(G96) Mt. Lemmon Survey  (N32.442729 W110.788720)  US/Arizona.  Observer E.
   J. Christensen. Measurers T. Beuden, V. F. Carvajal, D. Fay, J. B.
   Fazekas, D. C. Fuls, A. R. Gibbs, A. D. Grauer, H. Gröller, J. K. Hogan,
   R. A. Kowalski, S. M. Larson, G. J. Leonard, D. Rankin, R. L. Seaman, F.
   C. Shelly, K. W. Wierzchoś. 1.5-m reflector + 10K CCD.
(H01) Magdalena Ridge Observatory, Socorro  (N33.984833 W107.189333)  US/New
   Mexico.  Observers W. H. Ryan, E. V. Ryan. Measurer W. H. Ryan. 2.4-m
   f/8.9 reflector + CCD.
(I52) Steward Observatory, Mt. Lemmon Station  (N32.442570 W110.788920)
   US/Arizona. Measurers T. Beuden, V. F. Carvajal, D. Fay, J. B. Fazekas, D.
   C. Fuls, A. R. Gibbs, A. D. Grauer, H. Gröller, J. K. Hogan, R. A.
   Kowalski, S. M. Larson, G. J. Leonard, D. Rankin, R. L. Seaman, F. C.
   Shelly, K. W. Wierzchoś. 1.0-m prime focus + CCD.
(I93) St Pardon de Conques  (N44.558670 W0.202960)  France.  Observers F.
   Losse, W. D'Anna. Measurer F. Losse. 0.40-m f/3.7 reflector + CCD.
(L01) Višnjan Observatory, Tičan  (N45.290897 E13.749300)  Croatia.
   Observers K. Korlević, L. Poropat. Measurer K. Korlevic. 1.0-m f/2.9
   reflector + CCD.
(M45) Starhopper Observatory, Sfantu Gheorghe  (N45.865494 E25.768890)
   Romania.  Observer F. Ursache. 0.41-m f/7.5 reflector + CMO.
(U74) JPL SynTrack Robotic Telescope 2, Auberry  (N37.070341 W119.412800)
   US/California.  Observers N. Saini, C. Zhai, R. Trahan, M. Zhan, M. Shao.
   0.36-m f/2.2 Schmidt.

Orbital elements:  CEJ6Y92
   Perihelion 2026 Mar 5.331601 +/- 0.0114 TT =  7:57:30.3 (JD 2461104.831601)
Epoch 2026 Apr 16.0 TT = JDT 2461146.5   Earth MOID: 0.0050   Ma: 0.0450
M  13.131479770 +/- 0.036           (J2000 ecliptic)             AutoNEOCP
n   0.315142410 +/- 0.000785        Peri.   32.361757 +/- 0.06
a   2.138609444 +/- 0.00355         Node   118.083629 +/- 0.06
e   0.58426535 +/- 0.000729         Incl.    1.739220 +/- 0.0018
P   3.12750                H 24.92  G  0.15   U  7.9
q 0.889094040 +/- 9.03e-5    Q 3.388124848 +/- 0.00719
44 of 45 observations 2026 Apr. 15-16 (38.4 hr); mean residual 0".33
Residuals in arcseconds: 
260415 G96  .01-  .81+    260415 L01  .12-  .02+    260416 H01  .03-  .13-    
260415 G96  .00   .66+    260415 958  .93-  .24+    260416 H01  .13-  .11-    
260415 G96  .40+  .46-    260415 958  .00   .07-    260416 H01  .15-  .01-    
260415 G96  .06+  .64-    260415 958  .12-  1.1+    260416 I52  .26-  .13+    
260415 I52  .03+  .55-    260415 I93  .01-  .03-    260416 I52  .28+  .07+    
260415 I52  .04+  .21-    260415 I93  .23-  .14-    260416 I52  .73+  .12+    
260415 I52  .15+  .14+    260415 I93  .20+  .27-    260416 I52  .48+  .48+    
260415 I52  .08-  .11+    260416 033  .04-  .16+    260416 U74  .13-  .10-    
260415 M45  .24+  .24-    260416 033  .23-  .02+    260416 U74  .87+  .06-    
260415 M45  .03+  .30-    260416 033  .12-  .03-    260416 151( 2.6-  .04+)   
260415 M45  .22+  .05+    260416 033  .31-  .47-    260416 151  .40+  .40-    
260415 L01  .22-  .11+    260416 807  .44+  .06+    260416 151  .21-  .15+    
260415 L01  .22-  .25+    260416 807  .39+  .16+    260416 151  .08-  .67+    
260415 L01  .47-  .24-    260416 807  .27-  .38-    260416 104  .11-  .33-    
260415 L01  .16-  .16-    260416 H01  .10-  .05-    260416 104  .16-  .04+    

Ephemerides (geocentric):
Date (UTC) HH   RA             Dec           delta  r     elong  mag " sig PA
---- --------  ------------   ------------  ------ ------ -----  --- --------
2026 04 17 00  13 59 22.960   +19 29 30.89  .06523 1.0606 149.8 20.4 .091 129
2026 04 17 01  13 59 35.969   +19 20 57.82  .06547 1.0609 149.9 20.4 .092 128
2026 04 17 02  13 59 48.858   +19 12 28.36  .06572 1.0612 150.1 20.4 .094 127
2026 04 17 03  14 00 01.628   +19 04 02.49  .06596 1.0615 150.2 20.4 .096 127
2026 04 17 04  14 00 14.281   +18 55 40.16  .06621 1.0618 150.3 20.4 .098 126
2026 04 17 05  14 00 26.818   +18 47 21.35  .06645 1.0621 150.4 20.4 .099 126
2026 04 17 06  14 00 39.241   +18 39 06.03  .06670 1.0623 150.5 20.4 .101 125
2026 04 17 07  14 00 51.551   +18 30 54.17  .06694 1.0626 150.7 20.4 .103 125
2026 04 17 08  14 01 03.750   +18 22 45.74  .06719 1.0629 150.8 20.4 .104 124
2026 04 17 09  14 01 15.839   +18 14 40.70  .06743 1.0632 150.9 20.4 .106 124
2026 04 17 10  14 01 27.820   +18 06 39.04  .06768 1.0635 151.0 20.4 .108 123
2026 04 17 11  14 01 39.694   +17 58 40.71  .06793 1.0638 151.1 20.4 .109 123
2026 04 17 12  14 01 51.463   +17 50 45.69  .06818 1.0641 151.2 20.4 .111 123
2026 04 17 13  14 02 03.127   +17 42 53.96  .06843 1.0644 151.3 20.4 .112 122
2026 04 17 14  14 02 14.688   +17 35 05.48  .06867 1.0647 151.5 20.4 .114 122
2026 04 17 15  14 02 26.147   +17 27 20.22  .06892 1.0650 151.6 20.5 .116 121
2026 04 17 16  14 02 37.506   +17 19 38.16  .06917 1.0653 151.7 20.5 .117 121
2026 04 17 17  14 02 48.766   +17 11 59.26  .06942 1.0656 151.8 20.5 .119 120
2026 04 17 18  14 02 59.928   +17 04 23.51  .06967 1.0659 151.9 20.5 .120 120
2026 04 17 19  14 03 10.993   +16 56 50.87  .06993 1.0662 152.0 20.5 .122 120
2026 04 17 20  14 03 21.962   +16 49 21.31  .07018 1.0665 152.1 20.5 .124 119
2026 04 17 21  14 03 32.838   +16 41 54.81  .07043 1.0668 152.2 20.5 .125 119
2026 04 17 22  14 03 43.620   +16 34 31.35  .07068 1.0670 152.3 20.5 .127 119
2026 04 17 23  14 03 54.310   +16 27 10.89  .07093 1.0673 152.4 20.5 .128 118
2026 04 18 00  14 04 04.910   +16 19 53.41  .07119 1.0676 152.5 20.5 .130 118
2026 04 18 01  14 04 15.419   +16 12 38.88  .07144 1.0679 152.6 20.5 .131 117
2026 04 18 02  14 04 25.840   +16 05 27.28  .07169 1.0682 152.7 20.5 .133 117
2026 04 18 03  14 04 36.173   +15 58 18.59  .07195 1.0685 152.8 20.5 .134 117
2026 04 18 04  14 04 46.420   +15 51 12.76  .07220 1.0688 152.9 20.5 .136 116
2026 04 18 05  14 04 56.580   +15 44 09.79  .07246 1.0691 153.0 20.5 .137 116
2026 04 18 06  14 05 06.657   +15 37 09.65  .07271 1.0694 153.1 20.5 .139 116
2026 04 18 07  14 05 16.650   +15 30 12.30  .07297 1.0697 153.2 20.5 .140 115
2026 04 18 08  14 05 26.560   +15 23 17.74  .07323 1.0700 153.3 20.5 .142 115
2026 04 18 09  14 05 36.389   +15 16 25.92  .07348 1.0703 153.4 20.5 .143 115
2026 04 18 10  14 05 46.137   +15 09 36.84  .07374 1.0706 153.5 20.6 .144 114
2026 04 18 11  14 05 55.805   +15 02 50.46  .07400 1.0709 153.6 20.6 .146 114
2026 04 18 12  14 06 05.395   +14 56 06.76  .07426 1.0712 153.7 20.6 .147 114
2026 04 18 13  14 06 14.907   +14 49 25.72  .07451 1.0715 153.8 20.6 .149 113
2026 04 18 14  14 06 24.342   +14 42 47.31  .07477 1.0718 153.9 20.6 .150 113
2026 04 18 15  14 06 33.701   +14 36 11.51  .07503 1.0721 154.0 20.6 .151 113
2026 04 18 16  14 06 42.984   +14 29 38.31  .07529 1.0724 154.1 20.6 .153 113
2026 04 18 17  14 06 52.194   +14 23 07.67  .07555 1.0727 154.2 20.6 .154 112
2026 04 18 18  14 07 01.330   +14 16 39.57  .07581 1.0730 154.3 20.6 .156 112
2026 04 18 19  14 07 10.393   +14 10 14.00  .07607 1.0733 154.4 20.6 .157 112
2026 04 18 20  14 07 19.384   +14 03 50.93  .07633 1.0736 154.5 20.6 .158 111
2026 04 18 21  14 07 28.305   +13 57 30.33  .07659 1.0739 154.5 20.6 .160 111
2026 04 18 22  14 07 37.155   +13 51 12.20  .07685 1.0742 154.6 20.6 .161 111
2026 04 18 23  14 07 45.936   +13 44 56.50  .07711 1.0745 154.7 20.6 .162 110